Powrót do katalogu

IRIDIUM 69

AktywnyŁącznośćPO
NORAD 25319·PAYLOAD·🇺🇸 United States

Wystrzelony May 2, 1998 z Taiyuan Satellite Launch Center

Loading…

Następne Przeloty (najbliższe 24 godziny)

TLE

ŚwieżeSource: Space-Track

Epoka: Sep 14, 2026, 11:09 UTC

1 25319U 98026A   26257.46470092  .00000215  00000-0  60148-4 0  9990
2 25319  86.3910 263.3445 0002096  23.5945 336.5350 14.41445175488495

Śledź IRIDIUM 69 w czasie rzeczywistym z AllMySat

Download on the App Store